Time,TemperatureF,DewpointF,PressureIn,WindDirection,WindDirectionDegrees,WindSpeedMPH,WindSpeedGustMPH,Humidity,HourlyPrecipIn,Conditions,Clouds,dailyrainin,SolarRadiationWatts/m^2,SoftwareType,DateUTC
2013-01-06 00:06:00,25.8,20.5,29.85,NW,312,7.0,11.0,80,0.00,,,0.00,0,Wunderground v.1.15,2013-01-06 06:06:00,
2013-01-06 00:16:00,25.4,20.4,29.85,NW,310,8.0,8.0,81,0.00,,,0.00,0,Wunderground v.1.15,2013-01-06 06:16:00,
2013-01-06 00:21:00,25.2,20.2,29.84,WNW,303,7.0,7.0,81,0.00,,,0.00,0,Wunderground v.1.15,2013-01-06 06:21:00,
2013-01-06 00:31:00,25.1,20.1,29.85,NW,311,9.0,9.0,81,0.00,,,0.00,0,Wunderground v.1.15,2013-01-06 06:31:00,
2013-01-06 00:41:00,24.6,19.6,29.85,WNW,296,8.0,8.0,81,0.00,,,0.00,0,Wunderground v.1.15,2013-01-06 06:41:00,
2013-01-06 00:51:00,24.3,18.7,29.86,NW,307,7.0,7.0,79,0.00,,,0.00,0,Wunderground v.1.15,2013-01-06 06:51:00,
2013-01-06 01:01:00,23.7,17.8,29.86,NW,316,8.0,13.0,78,0.00,,,0.00,0,Wunderground v.1.15,2013-01-06 07:01:00,
2013-01-06 01:06:00,23.4,17.6,29.86,NW,312,6.0,13.0,78,0.00,,,0.00,0,Wunderground v.1.15,2013-01-06 07:06:00,
2013-01-06 01:16:00,23.2,17.4,29.86,NNW,327,10.0,10.0,78,0.00,,,0.00,0,Wunderground v.1.15,2013-01-06 07:16:00,
2013-01-06 01:26:00,22.8,17.0,29.86,NW,305,7.0,7.0,78,0.00,,,0.00,0,Wunderground v.1.15,2013-01-06 07:26:00,
2013-01-06 01:36:00,22.6,16.8,29.86,NW,307,3.0,4.0,78,0.00,,,0.00,0,Wunderground v.1.15,2013-01-06 07:36:00,
2013-01-06 01:41:00,22.7,16.9,29.86,NW,321,5.0,5.0,78,0.00,,,0.00,0,Wunderground v.1.15,2013-01-06 07:41:00,
2013-01-06 01:46:00,22.7,16.6,29.86,NNW,333,9.0,9.0,77,0.00,,,0.00,0,Wunderground v.1.15,2013-01-06 07:46:00,
2013-01-06 01:56:00,22.6,16.5,29.87,NW,321,3.0,5.0,77,0.00,,,0.00,0,Wunderground v.1.15,2013-01-06 07:56:00,
2013-01-06 02:06:00,22.2,16.4,29.88,NW,325,4.0,13.0,78,0.00,,,0.00,0,Wunderground v.1.15,2013-01-06 08:06:00,
2013-01-06 02:11:00,22.1,16.3,29.88,NW,322,7.0,7.0,78,0.00,,,0.00,0,Wunderground v.1.15,2013-01-06 08:11:00,
2013-01-06 02:21:00,21.8,16.3,29.88,NNW,328,4.0,4.0,79,0.00,,,0.00,0,Wunderground v.1.15,2013-01-06 08:21:00,
2013-01-06 02:26:00,21.5,16.0,29.88,NW,319,7.0,7.0,79,0.00,,,0.00,0,Wunderground v.1.15,2013-01-06 08:26:00,
2013-01-06 02:36:00,21.0,15.8,29.89,NW,304,7.0,11.0,80,0.00,,,0.00,0,Wunderground v.1.15,2013-01-06 08:36:00,
2013-01-06 02:46:00,20.9,15.7,29.90,NW,309,8.0,8.0,80,0.00,,,0.00,0,Wunderground v.1.15,2013-01-06 08:46:00,
2013-01-06 02:51:00,21.1,15.9,29.90,NW,320,10.0,10.0,80,0.00,,,0.00,0,Wunderground v.1.15,2013-01-06 08:51:00,
2013-01-06 03:01:00,21.2,16.0,29.90,NW,320,8.0,11.0,80,0.00,,,0.00,0,Wunderground v.1.15,2013-01-06 09:01:00,
2013-01-06 03:06:00,21.4,15.9,29.91,NW,308,5.0,11.0,79,0.00,,,0.00,0,Wunderground v.1.15,2013-01-06 09:06:00,
2013-01-06 03:16:00,21.5,16.0,29.91,NNW,328,6.0,11.0,79,0.00,,,0.00,0,Wunderground v.1.15,2013-01-06 09:16:00,
2013-01-06 03:26:00,21.5,16.0,29.91,NNW,338,4.0,4.0,79,0.00,,,0.00,0,Wunderground v.1.15,2013-01-06 09:26:00,
2013-01-06 03:31:00,21.6,16.1,29.91,NW,321,5.0,5.0,79,0.00,,,0.00,0,Wunderground v.1.15,2013-01-06 09:31:00,
2013-01-06 03:41:00,21.6,16.1,29.91,NW,309,9.0,9.0,79,0.00,,,0.00,0,Wunderground v.1.15,2013-01-06 09:41:00,
2013-01-06 03:51:00,21.5,16.0,29.92,NW,313,7.0,7.0,79,0.00,,,0.00,0,Wunderground v.1.15,2013-01-06 09:51:00,
2013-01-06 04:01:00,21.5,16.0,29.91,WNW,303,7.0,10.0,79,0.00,,,0.00,0,Wunderground v.1.15,2013-01-06 10:01:00,
2013-01-06 04:06:00,21.5,16.0,29.92,NNW,328,3.0,10.0,79,0.00,,,0.00,0,Wunderground v.1.15,2013-01-06 10:06:00,
2013-01-06 04:16:00,21.5,16.3,29.92,NNW,330,5.0,5.0,80,0.00,,,0.00,0,Wunderground v.1.15,2013-01-06 10:16:00,
2013-01-06 04:26:00,21.2,16.0,29.92,NW,312,5.0,5.0,80,0.00,,,0.00,0,Wunderground v.1.15,2013-01-06 10:26:00,
2013-01-06 04:36:00,21.3,16.4,29.92,NW,315,4.0,5.0,81,0.00,,,0.00,0,Wunderground v.1.15,2013-01-06 10:36:00,
2013-01-06 04:46:00,21.4,16.5,29.92,NW,314,7.0,8.0,81,0.00,,,0.00,0,Wunderground v.1.15,2013-01-06 10:46:00,
2013-01-06 04:56:00,21.6,17.0,29.93,WNW,297,7.0,7.0,82,0.00,,,0.00,0,Wunderground v.1.15,2013-01-06 10:56:00,
2013-01-06 05:01:00,21.6,17.0,29.93,NW,309,4.0,13.0,82,0.00,,,0.00,0,Wunderground v.1.15,2013-01-06 11:01:00,
2013-01-06 05:11:00,21.7,17.3,29.94,NNW,334,2.0,2.0,83,0.00,,,0.00,0,Wunderground v.1.15,2013-01-06 11:11:00,
2013-01-06 05:21:00,21.9,17.5,29.94,WNW,303,4.0,4.0,83,0.00,,,0.00,0,Wunderground v.1.15,2013-01-06 11:21:00,
2013-01-06 05:31:00,21.9,17.8,29.94,NW,317,8.0,8.0,84,0.00,,,0.00,0,Wunderground v.1.15,2013-01-06 11:31:00,
2013-01-06 05:36:00,21.9,17.8,29.94,NW,318,5.0,8.0,84,0.00,,,0.00,0,Wunderground v.1.15,2013-01-06 11:36:00,
2013-01-06 05:46:00,21.5,17.7,29.95,NW,321,5.0,7.0,85,0.00,,,0.00,0,Wunderground v.1.15,2013-01-06 11:46:00,
2013-01-06 05:56:00,20.8,17.3,29.95,NW,308,5.0,5.0,86,0.00,,,0.00,0,Wunderground v.1.15,2013-01-06 11:56:00,
2013-01-06 06:06:00,20.3,17.0,29.96,NW,304,7.0,11.0,87,0.00,,,0.00,0,Wunderground v.1.15,2013-01-06 12:06:00,
2013-01-06 06:11:00,20.3,17.0,29.97,NW,316,10.0,10.0,87,0.00,,,0.00,0,Wunderground v.1.15,2013-01-06 12:11:00,
2013-01-06 06:21:00,19.9,16.7,29.96,NW,304,3.0,3.0,87,0.00,,,0.00,0,Wunderground v.1.15,2013-01-06 12:21:00,
2013-01-06 06:31:00,19.3,16.1,29.96,NW,318,6.0,6.0,87,0.00,,,0.00,0,Wunderground v.1.15,2013-01-06 12:31:00,
2013-01-06 06:36:00,19.0,16.0,29.96,NW,309,4.0,6.0,88,0.00,,,0.00,0,Wunderground v.1.15,2013-01-06 12:36:00,
2013-01-06 06:46:00,18.9,15.9,29.97,NW,323,5.0,5.0,88,0.00,,,0.00,0,Wunderground v.1.15,2013-01-06 12:46:00,
2013-01-06 06:56:00,18.7,16.0,29.98,NW,315,4.0,4.0,89,0.00,,,0.00,0,Wunderground v.1.15,2013-01-06 12:56:00,
2013-01-06 07:06:00,18.7,16.0,29.98,NW,313,6.0,10.0,89,0.00,,,0.00,0,Wunderground v.1.15,2013-01-06 13:06:00,
2013-01-06 07:11:00,19.0,16.3,29.98,NW,326,11.0,11.0,89,0.00,,,0.00,0,Wunderground v.1.15,2013-01-06 13:11:00,
2013-01-06 07:21:00,20.3,17.6,29.99,NW,320,5.0,5.0,89,0.00,,,0.00,0,Wunderground v.1.15,2013-01-06 13:21:00,
2013-01-06 07:31:00,21.2,17.9,29.99,NNW,331,9.0,9.0,87,0.00,,,0.00,0,Wunderground v.1.15,2013-01-06 13:31:00,
2013-01-06 07:41:00,21.6,18.3,30.00,NNW,330,9.0,9.0,87,0.00,,,0.00,0,Wunderground v.1.15,2013-01-06 13:41:00,
2013-01-06 07:51:00,21.7,18.2,30.00,NNW,340,7.0,7.0,86,0.00,,,0.00,0,Wunderground v.1.15,2013-01-06 13:51:00,
2013-01-06 08:01:00,21.9,18.4,30.01,NNW,329,9.0,13.0,86,0.00,,,0.00,0,Wunderground v.1.15,2013-01-06 14:01:00,
2013-01-06 08:06:00,21.9,18.4,30.02,WNW,302,4.0,13.0,86,0.00,,,0.00,0,Wunderground v.1.15,2013-01-06 14:06:00,
2013-01-06 08:16:00,22.0,18.5,30.02,NNW,335,6.0,7.0,86,0.00,,,0.00,0,Wunderground v.1.15,2013-01-06 14:16:00,
2013-01-06 08:26:00,22.2,18.7,30.03,NNW,328,9.0,10.0,86,0.00,,,0.00,0,Wunderground v.1.15,2013-01-06 14:26:00,
2013-01-06 08:36:00,22.3,18.7,30.03,NNW,334,11.0,11.0,86,0.00,,,0.00,0,Wunderground v.1.15,2013-01-06 14:36:00,
2013-01-06 08:46:00,22.4,18.8,30.05,NNW,346,7.0,11.0,86,0.00,,,0.00,0,Wunderground v.1.15,2013-01-06 14:46:00,
2013-01-06 08:56:00,22.6,19.0,30.05,NNW,336,16.0,16.0,86,0.00,,,0.00,0,Wunderground v.1.15,2013-01-06 14:56:00,
2013-01-06 09:06:00,23.0,19.2,30.05,NW,310,5.0,17.0,85,0.00,,,0.00,0,Wunderground v.1.15,2013-01-06 15:06:00,
2013-01-06 09:16:00,23.3,19.7,30.06,NNW,328,8.0,8.0,86,0.00,,,0.00,0,Wunderground v.1.15,2013-01-06 15:16:00,
2013-01-06 09:21:00,23.5,19.7,30.06,WNW,297,6.0,6.0,85,0.00,,,0.00,0,Wunderground v.1.15,2013-01-06 15:21:00,
2013-01-06 09:31:00,23.8,19.7,30.06,NW,307,5.0,5.0,84,0.00,,,0.00,0,Wunderground v.1.15,2013-01-06 15:31:00,
2013-01-06 09:41:00,24.0,19.9,30.07,NW,318,7.0,7.0,84,0.00,,,0.00,0,Wunderground v.1.15,2013-01-06 15:41:00,
2013-01-06 09:51:00,24.5,20.4,30.07,WNW,298,9.0,9.0,84,0.00,,,0.00,0,Wunderground v.1.15,2013-01-06 15:51:00,
2013-01-06 10:01:00,24.6,20.2,30.08,NW,319,5.0,17.0,83,0.00,,,0.00,0,Wunderground v.1.15,2013-01-06 16:01:00,
2013-01-06 10:06:00,24.8,20.1,30.08,NW,319,9.0,17.0,82,0.00,,,0.00,0,Wunderground v.1.15,2013-01-06 16:06:00,
2013-01-06 10:16:00,25.0,20.3,30.09,NW,322,10.0,10.0,82,0.00,,,0.00,0,Wunderground v.1.15,2013-01-06 16:16:00,
2013-01-06 10:26:00,25.1,20.4,30.09,NW,321,6.0,11.0,82,0.00,,,0.00,0,Wunderground v.1.15,2013-01-06 16:26:00,
2013-01-06 10:36:00,25.3,20.3,30.10,NW,306,8.0,12.0,81,0.00,,,0.00,0,Wunderground v.1.15,2013-01-06 16:36:00,
2013-01-06 10:46:00,25.5,20.2,30.09,NW,320,12.0,12.0,80,0.00,,,0.00,0,Wunderground v.1.15,2013-01-06 16:46:00,
2013-01-06 10:56:00,25.9,20.6,30.10,NW,309,10.0,11.0,80,0.00,,,0.00,0,Wunderground v.1.15,2013-01-06 16:56:00,
2013-01-06 11:06:00,26.1,20.5,30.09,NW,323,7.0,14.0,79,0.00,,,0.00,0,Wunderground v.1.15,2013-01-06 17:06:00,
2013-01-06 11:16:00,25.5,19.9,30.09,NW,320,4.0,6.0,79,0.00,,,0.00,0,Wunderground v.1.15,2013-01-06 17:16:00,
2013-01-06 11:26:00,24.7,19.4,30.09,NW,308,5.0,7.0,80,0.00,,,0.00,0,Wunderground v.1.15,2013-01-06 17:26:00,
2013-01-06 11:36:00,25.1,19.8,30.10,NW,304,6.0,9.0,80,0.00,,,0.00,0,Wunderground v.1.15,2013-01-06 17:36:00,
2013-01-06 11:46:00,24.9,19.6,30.09,NW,304,8.0,8.0,80,0.00,,,0.00,0,Wunderground v.1.15,2013-01-06 17:46:00,
2013-01-06 11:56:00,24.8,19.5,30.09,WNW,303,7.0,7.0,80,0.00,,,0.00,0,Wunderground v.1.15,2013-01-06 17:56:00,
2013-01-06 12:06:00,25.1,19.8,30.09,WNW,289,8.0,12.0,80,0.00,,,0.00,0,Wunderground v.1.15,2013-01-06 18:06:00,
2013-01-06 12:16:00,25.1,19.8,30.09,WNW,287,5.0,5.0,80,0.00,,,0.00,0,Wunderground v.1.15,2013-01-06 18:16:00,
2013-01-06 12:26:00,25.4,20.1,30.09,WNW,287,5.0,5.0,80,0.00,,,0.00,0,Wunderground v.1.15,2013-01-06 18:26:00,
2013-01-06 12:36:00,26.0,20.1,30.09,West,281,5.0,6.0,78,0.00,,,0.00,0,Wunderground v.1.15,2013-01-06 18:36:00,
2013-01-06 12:46:00,26.0,20.1,30.10,WNW,297,5.0,6.0,78,0.00,,,0.00,0,Wunderground v.1.15,2013-01-06 18:46:00,
2013-01-06 12:56:00,26.5,20.3,30.09,WNW,294,9.0,9.0,77,0.00,,,0.00,0,Wunderground v.1.15,2013-01-06 18:56:00,
2013-01-06 13:01:00,26.5,20.3,30.09,WNW,292,7.0,7.0,77,0.00,,,0.00,0,Wunderground v.1.15,2013-01-06 19:01:00,
2013-01-06 13:11:00,26.2,20.0,30.09,WNW,292,9.0,9.0,77,0.00,,,0.00,0,Wunderground v.1.15,2013-01-06 19:11:00,
2013-01-06 13:21:00,26.0,19.8,30.08,WNW,292,9.0,9.0,77,0.00,,,0.00,0,Wunderground v.1.15,2013-01-06 19:21:00,
2013-01-06 13:31:00,25.7,19.8,30.08,NW,317,7.0,7.0,78,0.00,,,0.00,0,Wunderground v.1.15,2013-01-06 19:31:00,
2013-01-06 13:36:00,25.9,20.0,30.09,NW,319,7.0,7.0,78,0.00,,,0.00,0,Wunderground v.1.15,2013-01-06 19:36:00,
2013-01-06 13:46:00,26.2,20.0,30.09,WNW,300,9.0,9.0,77,0.00,,,0.00,0,Wunderground v.1.15,2013-01-06 19:46:00,
2013-01-06 13:51:00,26.3,20.1,30.10,NW,308,6.0,6.0,77,0.00,,,0.00,0,Wunderground v.1.15,2013-01-06 19:51:00,
2013-01-06 13:56:00,26.4,20.2,30.10,NW,305,7.0,7.0,77,0.00,,,0.00,0,Wunderground v.1.15,2013-01-06 19:56:00,
2013-01-06 14:01:00,26.3,20.1,30.10,WNW,298,7.0,11.0,77,0.00,,,0.00,0,Wunderground v.1.15,2013-01-06 20:01:00,
2013-01-06 14:06:00,26.1,19.9,30.11,WNW,294,9.0,11.0,77,0.00,,,0.00,0,Wunderground v.1.15,2013-01-06 20:06:00,
2013-01-06 14:16:00,26.0,19.8,30.11,WNW,296,9.0,9.0,77,0.00,,,0.00,0,Wunderground v.1.15,2013-01-06 20:16:00,
2013-01-06 14:21:00,26.0,19.8,30.11,WNW,297,8.0,8.0,77,0.00,,,0.00,0,Wunderground v.1.15,2013-01-06 20:21:00,
2013-01-06 14:31:00,25.8,19.9,30.12,NW,308,5.0,5.0,78,0.00,,,0.00,0,Wunderground v.1.15,2013-01-06 20:31:00,
2013-01-06 14:41:00,26.0,20.1,30.13,NW,318,5.0,5.0,78,0.00,,,0.00,0,Wunderground v.1.15,2013-01-06 20:41:00,
2013-01-06 14:51:00,26.1,19.9,30.13,NW,316,4.0,4.0,77,0.00,,,0.00,0,Wunderground v.1.15,2013-01-06 20:51:00,
2013-01-06 15:01:00,26.1,19.9,30.13,NW,305,6.0,12.0,77,0.00,,,0.00,0,Wunderground v.1.15,2013-01-06 21:01:00,
2013-01-06 15:11:00,25.6,19.7,30.13,NW,304,4.0,4.0,78,0.00,,,0.00,0,Wunderground v.1.15,2013-01-06 21:11:00,
2013-01-06 15:21:00,25.3,19.4,30.14,WNW,287,4.0,4.0,78,0.00,,,0.00,0,Wunderground v.1.15,2013-01-06 21:21:00,
2013-01-06 15:31:00,24.8,18.9,30.14,WNW,300,6.0,6.0,78,0.00,,,0.00,0,Wunderground v.1.15,2013-01-06 21:31:00,
2013-01-06 15:41:00,24.3,18.4,30.15,WNW,300,5.0,5.0,78,0.00,,,0.00,0,Wunderground v.1.15,2013-01-06 21:41:00,
2013-01-06 15:51:00,24.1,17.6,30.15,NW,311,7.0,7.0,76,0.00,,,0.00,0,Wunderground v.1.15,2013-01-06 21:51:00,
2013-01-06 15:56:00,23.9,17.4,30.15,WNW,302,4.0,7.0,76,0.00,,,0.00,0,Wunderground v.1.15,2013-01-06 21:56:00,
2013-01-06 16:06:00,23.5,17.0,30.16,WNW,303,5.0,9.0,76,0.00,,,0.00,0,Wunderground v.1.15,2013-01-06 22:06:00,
2013-01-06 16:11:00,23.3,16.9,30.16,WNW,298,6.0,6.0,76,0.00,,,0.00,0,Wunderground v.1.15,2013-01-06 22:11:00,
2013-01-06 16:21:00,22.9,16.2,30.17,WNW,301,4.0,4.0,75,0.00,,,0.00,0,Wunderground v.1.15,2013-01-06 22:21:00,
2013-01-06 16:31:00,22.2,15.8,30.16,WNW,288,4.0,4.0,76,0.00,,,0.00,0,Wunderground v.1.15,2013-01-06 22:31:00,
2013-01-06 16:36:00,21.9,15.2,30.16,WNW,288,1.0,4.0,75,0.00,,,0.00,0,Wunderground v.1.15,2013-01-06 22:36:00,
2013-01-06 16:46:00,21.2,14.8,30.16,WNW,288,1.0,1.0,76,0.00,,,0.00,0,Wunderground v.1.15,2013-01-06 22:46:00,
2013-01-06 16:51:00,20.8,14.7,30.16,WNW,288,1.0,1.0,77,0.00,,,0.00,0,Wunderground v.1.15,2013-01-06 22:51:00,
2013-01-06 17:01:00,20.1,14.0,30.16,WNW,283,2.0,7.0,77,0.00,,,0.00,0,Wunderground v.1.15,2013-01-06 23:01:00,
2013-01-06 17:11:00,19.4,13.7,30.17,WNW,283,2.0,2.0,78,0.00,,,0.00,0,Wunderground v.1.15,2013-01-06 23:11:00,
2013-01-06 17:16:00,19.2,13.5,30.17,WNW,283,2.0,2.0,78,0.00,,,0.00,0,Wunderground v.1.15,2013-01-06 23:16:00,
2013-01-06 17:26:00,18.7,13.3,30.17,WNW,283,1.0,1.0,79,0.00,,,0.00,0,Wunderground v.1.15,2013-01-06 23:26:00,
2013-01-06 17:36:00,18.1,12.7,30.17,WNW,283,0.0,0.0,79,0.00,,,0.00,0,Wunderground v.1.15,2013-01-06 23:36:00,
2013-01-06 17:41:00,17.9,12.5,30.17,WNW,283,0.0,0.0,79,0.00,,,0.00,0,Wunderground v.1.15,2013-01-06 23:41:00,
2013-01-06 17:51:00,17.5,12.4,30.16,WNW,283,0.0,0.0,80,0.00,,,0.00,0,Wunderground v.1.15,2013-01-06 23:51:00,
2013-01-06 18:01:00,17.1,12.3,30.17,WNW,283,0.0,0.0,81,0.00,,,0.00,0,Wunderground v.1.15,2013-01-07 00:01:00,
2013-01-06 18:06:00,16.7,11.6,30.16,WNW,283,0.0,0.0,80,0.00,,,0.00,0,Wunderground v.1.15,2013-01-07 00:06:00,
2013-01-06 18:16:00,16.3,11.5,30.16,WNW,283,0.0,0.0,81,0.00,,,0.00,0,Wunderground v.1.15,2013-01-07 00:16:00,
2013-01-06 18:21:00,16.1,11.3,30.16,WNW,283,0.0,0.0,81,0.00,,,0.00,0,Wunderground v.1.15,2013-01-07 00:21:00,
2013-01-06 18:26:00,15.9,11.1,30.17,WNW,283,1.0,1.0,81,0.00,,,0.00,0,Wunderground v.1.15,2013-01-07 00:26:00,
2013-01-06 18:31:00,15.7,11.2,30.17,WNW,283,0.0,0.0,82,0.00,,,0.00,0,Wunderground v.1.15,2013-01-07 00:31:00,
2013-01-06 18:41:00,14.9,10.1,30.18,WNW,283,2.0,2.0,81,0.00,,,0.00,0,Wunderground v.1.15,2013-01-07 00:41:00,
2013-01-06 18:56:00,13.7,9.0,30.18,WNW,283,0.0,0.0,81,0.00,,,0.00,0,Wunderground v.1.15,2013-01-07 00:56:00,
2013-01-06 19:06:00,13.6,9.4,30.18,WNW,283,0.0,2.0,83,0.00,,,0.00,0,Wunderground v.1.15,2013-01-07 01:06:00,
2013-01-06 19:16:00,13.6,9.7,30.18,WNW,283,0.0,0.0,84,0.00,,,0.00,0,Wunderground v.1.15,2013-01-07 01:16:00,
2013-01-06 19:26:00,13.4,9.5,30.17,WNW,283,0.0,0.0,84,0.00,,,0.00,0,Wunderground v.1.15,2013-01-07 01:26:00,
2013-01-06 19:36:00,13.3,9.4,30.17,WNW,283,0.0,0.0,84,0.00,,,0.00,0,Wunderground v.1.15,2013-01-07 01:36:00,
2013-01-06 19:46:00,13.2,9.5,30.17,WNW,283,0.0,0.0,85,0.00,,,0.00,0,Wunderground v.1.15,2013-01-07 01:46:00,
2013-01-06 19:56:00,13.0,9.3,30.17,WNW,283,0.0,0.0,85,0.00,,,0.00,0,Wunderground v.1.15,2013-01-07 01:56:00,
2013-01-06 20:06:00,12.4,8.2,30.17,WNW,283,0.0,0.0,83,0.00,,,0.00,0,Wunderground v.1.15,2013-01-07 02:06:00,
2013-01-06 20:16:00,12.0,8.1,30.16,WNW,283,2.0,2.0,84,0.00,,,0.00,0,Wunderground v.1.15,2013-01-07 02:16:00,
2013-01-06 20:21:00,11.9,8.3,30.16,WNW,283,0.0,0.0,85,0.00,,,0.00,0,Wunderground v.1.15,2013-01-07 02:21:00,
2013-01-06 20:26:00,11.9,8.5,30.16,WNW,283,0.0,0.0,86,0.00,,,0.00,0,Wunderground v.1.15,2013-01-07 02:26:00,
2013-01-06 20:36:00,12.0,8.6,30.17,WNW,283,0.0,0.0,86,0.00,,,0.00,0,Wunderground v.1.15,2013-01-07 02:36:00,
2013-01-06 20:46:00,11.8,8.2,30.17,WNW,283,0.0,0.0,85,0.00,,,0.00,0,Wunderground v.1.15,2013-01-07 02:46:00,
2013-01-06 20:56:00,11.6,8.2,30.17,WNW,283,2.0,2.0,86,0.00,,,0.00,0,Wunderground v.1.15,2013-01-07 02:56:00,
2013-01-06 21:06:00,11.2,7.6,30.17,WNW,283,0.0,2.0,85,0.00,,,0.00,0,Wunderground v.1.15,2013-01-07 03:06:00,
2013-01-06 21:16:00,10.8,6.9,30.18,WNW,283,2.0,2.0,84,0.00,,,0.00,0,Wunderground v.1.15,2013-01-07 03:16:00,
2013-01-06 21:21:00,10.5,6.6,30.18,WNW,283,1.0,1.0,84,0.00,,,0.00,0,Wunderground v.1.15,2013-01-07 03:21:00,
2013-01-06 21:31:00,10.3,6.4,30.18,West,262,0.0,0.0,84,0.00,,,0.00,0,Wunderground v.1.15,2013-01-07 03:31:00,
2013-01-06 21:41:00,10.5,7.1,30.18,West,262,0.0,0.0,86,0.00,,,0.00,0,Wunderground v.1.15,2013-01-07 03:41:00,
2013-01-06 21:46:00,10.6,7.0,30.18,West,262,0.0,0.0,85,0.00,,,0.00,0,Wunderground v.1.15,2013-01-07 03:46:00,
2013-01-06 21:56:00,10.7,7.3,30.17,West,262,0.0,0.0,86,0.00,,,0.00,0,Wunderground v.1.15,2013-01-07 03:56:00,
2013-01-06 22:06:00,10.6,7.2,30.18,West,261,2.0,2.0,86,0.00,,,0.00,0,Wunderground v.1.15,2013-01-07 04:06:00,
2013-01-06 22:16:00,10.4,7.0,30.17,WSW,240,2.0,3.0,86,0.00,,,0.00,0,Wunderground v.1.15,2013-01-07 04:16:00,
2013-01-06 22:21:00,10.4,7.0,30.18,SW,221,4.0,4.0,86,0.00,,,0.00,0,Wunderground v.1.15,2013-01-07 04:21:00,
2013-01-06 22:31:00,10.2,6.8,30.18,SW,234,3.0,3.0,86,0.00,,,0.00,0,Wunderground v.1.15,2013-01-07 04:31:00,
2013-01-06 22:41:00,10.2,6.8,30.17,SSW,201,3.0,3.0,86,0.00,,,0.00,0,Wunderground v.1.15,2013-01-07 04:41:00,
2013-01-06 22:46:00,10.1,6.7,30.17,SSW,199,4.0,4.0,86,0.00,,,0.00,0,Wunderground v.1.15,2013-01-07 04:46:00,
2013-01-06 22:56:00,9.9,6.3,30.17,SSW,199,3.0,3.0,85,0.00,,,0.00,0,Wunderground v.1.15,2013-01-07 04:56:00,
2013-01-06 23:01:00,9.8,6.2,30.17,SSW,200,3.0,3.0,85,0.00,,,0.00,0,Wunderground v.1.15,2013-01-07 05:01:00,
2013-01-06 23:06:00,9.8,6.2,30.17,SSW,200,3.0,3.0,85,0.00,,,0.00,0,Wunderground v.1.15,2013-01-07 05:06:00,
2013-01-06 23:11:00,9.8,6.2,30.17,SSW,197,1.0,1.0,85,0.00,,,0.00,0,Wunderground v.1.15,2013-01-07 05:11:00,
2013-01-06 23:21:00,9.8,6.5,30.17,SSW,197,0.0,0.0,86,0.00,,,0.00,0,Wunderground v.1.15,2013-01-07 05:21:00,
2013-01-06 23:31:00,9.9,6.6,30.17,SSW,197,2.0,2.0,86,0.00,,,0.00,0,Wunderground v.1.15,2013-01-07 05:31:00,
2013-01-06 23:41:00,10.3,7.2,30.16,SSW,212,4.0,4.0,87,0.00,,,0.00,0,Wunderground v.1.15,2013-01-07 05:41:00,
2013-01-06 23:46:00,10.5,7.4,30.16,SSW,212,3.0,4.0,87,0.00,,,0.00,0,Wunderground v.1.15,2013-01-07 05:46:00,
2013-01-06 23:56:00,11.2,8.1,30.15,SSE,149,4.0,4.0,87,0.00,,,0.00,0,Wunderground v.1.15,2013-01-07 05:56:00,